RYR1XG LIEA-LEMD

Flight info

Callsign RYR1XG
Flight time 1h 32m
Altitude 35000
Route GINOX M601 BUKID KIFMI/N0449F360 ELVOP MUREN/N0447F350 M601 BCN/N0452F370 N975 RAMON/N0435F310 N975 ADUXO
Aircraft B738/M-SDE2E3FGHIRWXY/LB1

Departure

Time 2026-05-06 14:06
Airport Alghero-Fertilia Airport (LIEA)

Arrival

Time 2026-05-06 15:38
Airport Adolfo Suárez Madrid–Barajas Airport (LEMD)
Time Latitude Longitude Altitude Speed Heading
2026-05-06 13:46 40.63025 8.29302 79 ft 0 kts
2026-05-06 13:57 40.63009 8.29302 85 ft 4 kts 357°
2026-05-06 13:58 40.62982 8.29305 83 ft 4 kts 353°
2026-05-06 13:58 40.62956 8.29306 69 ft 4 kts 13°
2026-05-06 13:58 40.62947 8.29303 70 ft 1 kts 25°
2026-05-06 14:00 40.62953 8.29307 74 ft 4 kts 25°
2026-05-06 14:00 40.62998 8.29335 82 ft 11 kts 25°
2026-05-06 14:01 40.63076 8.29381 81 ft 12 kts 24°
2026-05-06 14:01 40.63153 8.29428 83 ft 12 kts 25°
2026-05-06 14:01 40.63229 8.29474 84 ft 12 kts 24°
2026-05-06 14:01 40.63309 8.29472 81 ft 12 kts 349°
2026-05-06 14:02 40.63386 8.29452 84 ft 11 kts 350°
2026-05-06 14:02 40.63469 8.29479 82 ft 14 kts 25°
2026-05-06 14:02 40.63574 8.29542 86 ft 19 kts 24°
2026-05-06 14:02 40.63707 8.29621 87 ft 23 kts 24°
2026-05-06 14:03 40.63863 8.29716 86 ft 26 kts 25°
2026-05-06 14:03 40.64025 8.29813 90 ft 25 kts 24°
2026-05-06 14:03 40.64177 8.29904 88 ft 23 kts 25°
2026-05-06 14:03 40.64304 8.29981 90 ft 15 kts 24°
2026-05-06 14:04 40.64404 8.29969 91 ft 15 kts 325°
2026-05-06 14:04 40.64417 8.29848 87 ft 14 kts 248°
2026-05-06 14:04 40.64353 8.29760 89 ft 9 kts 205°
2026-05-06 14:04 40.64337 8.29750 88 ft 0 kts 205°
2026-05-06 14:05 40.64293 8.29723 89 ft 35 kts 205°
2026-05-06 14:05 40.63989 8.29540 87 ft 67 kts 204°
2026-05-06 14:05 40.63321 8.29139 87 ft 141 kts 205°
2026-05-06 14:05 40.62328 8.28541 632 ft 161 kts 205°
2026-05-06 14:06 40.61268 8.28021 1552 ft 168 kts 192°
2026-05-06 14:06 40.60049 8.27720 2144 ft 191 kts 191°
2026-05-06 14:06 40.58658 8.27377 2524 ft 211 kts 191°
2026-05-06 14:06 40.57184 8.27015 3070 ft 221 kts 191°
2026-05-06 14:07 40.55642 8.26637 3707 ft 229 kts 191°
2026-05-06 14:07 40.54071 8.26254 4535 ft 230 kts 192°
2026-05-06 14:07 40.52463 8.25862 5300 ft 233 kts 192°
2026-05-06 14:07 40.50889 8.25478 6102 ft 233 kts 192°
2026-05-06 14:08 40.49322 8.24870 6842 ft 233 kts 214°
2026-05-06 14:08 40.48302 8.23305 7513 ft 234 kts 246°
2026-05-06 14:08 40.48000 8.21114 7777 ft 260 kts 274°
2026-05-06 14:08 40.48373 8.18718 8273 ft 275 kts 289°
2026-05-06 14:09 40.49200 8.16427 9019 ft 280 kts 296°
2026-05-06 14:09 40.50168 8.14190 9838 ft 283 kts 297°
2026-05-06 14:09 40.51174 8.11930 10410 ft 294 kts 297°
2026-05-06 14:09 40.52245 8.09504 10576 ft 318 kts 297°
2026-05-06 14:10 40.53382 8.06898 10824 ft 338 kts 297°
2026-05-06 14:10 40.54558 8.04178 11381 ft 345 kts 297°
2026-05-06 14:10 40.55744 8.01414 12113 ft 348 kts 296°
2026-05-06 14:10 40.56929 7.98631 12863 ft 350 kts 296°
2026-05-06 14:11 40.58120 7.95821 13601 ft 353 kts 296°
2026-05-06 14:11 40.59317 7.92985 14294 ft 355 kts 295°
2026-05-06 14:11 40.60519 7.90130 14938 ft 358 kts 295°
2026-05-06 14:11 40.61727 7.87251 15551 ft 362 kts 295°
2026-05-06 14:12 40.62948 7.84340 16174 ft 365 kts 294°
2026-05-06 14:12 40.64178 7.81401 16807 ft 368 kts 294°
2026-05-06 14:12 40.65416 7.78442 17426 ft 371 kts 294°
2026-05-06 14:12 40.66669 7.75444 18027 ft 375 kts 294°
2026-05-06 14:13 40.67929 7.72425 18570 ft 378 kts 294°
2026-05-06 14:13 40.69201 7.69376 19095 ft 381 kts 293°
2026-05-06 14:13 40.70478 7.66313 19649 ft 383 kts 293°
2026-05-06 14:13 40.71763 7.63226 20180 ft 385 kts 293°
2026-05-06 14:14 40.73055 7.60120 20692 ft 388 kts 293°
2026-05-06 14:14 40.74355 7.56989 21224 ft 390 kts 293°
2026-05-06 14:14 40.75661 7.53844 21768 ft 391 kts 292°
2026-05-06 14:14 40.76971 7.50685 22262 ft 394 kts 292°
2026-05-06 14:15 40.78288 7.47504 22752 ft 397 kts 292°
2026-05-06 14:15 40.79615 7.44295 23211 ft 399 kts 292°
2026-05-06 14:15 40.80498 7.42159 23526 ft 401 kts 292°
2026-05-06 14:15 40.81835 7.38921 23912 ft 403 kts 292°
2026-05-06 14:16 40.83181 7.35659 24308 ft 405 kts 292°
2026-05-06 14:16 40.84533 7.32380 24692 ft 407 kts 292°
2026-05-06 14:16 40.85890 7.29084 25069 ft 410 kts 292°
2026-05-06 14:16 40.87251 7.25774 25434 ft 412 kts 292°
2026-05-06 14:17 40.88581 7.22417 25787 ft 411 kts 288°
2026-05-06 14:17 40.89540 7.18887 26134 ft 406 kts 279°
2026-05-06 14:17 40.90084 7.15246 26483 ft 402 kts 271°
2026-05-06 14:17 40.90350 7.11562 26835 ft 404 kts 270°
2026-05-06 14:18 40.90597 7.07855 27157 ft 406 kts 270°
2026-05-06 14:18 40.90844 7.04126 27478 ft 408 kts 270°
2026-05-06 14:18 40.91097 7.00383 27798 ft 410 kts 270°
2026-05-06 14:18 40.91355 6.96621 28117 ft 412 kts 270°
2026-05-06 14:19 40.91618 6.92838 28426 ft 414 kts 270°
2026-05-06 14:19 40.91885 6.89037 28729 ft 416 kts 270°
2026-05-06 14:19 40.92153 6.85221 29019 ft 418 kts 271°
2026-05-06 14:19 40.92422 6.81389 29353 ft 419 kts 271°
2026-05-06 14:20 40.92692 6.77545 29734 ft 419 kts 271°
2026-05-06 14:20 40.92959 6.73717 30145 ft 417 kts 271°
2026-05-06 14:20 40.93225 6.69904 30516 ft 416 kts 271°
2026-05-06 14:20 40.93487 6.66101 30831 ft 415 kts 271°
2026-05-06 14:21 40.93748 6.62300 31130 ft 415 kts 271°
2026-05-06 14:21 40.94007 6.58502 31446 ft 414 kts 270°
2026-05-06 14:21 40.94264 6.54711 31774 ft 413 kts 270°
2026-05-06 14:21 40.94520 6.50933 32090 ft 413 kts 270°
2026-05-06 14:22 40.94773 6.47156 32393 ft 412 kts 270°
2026-05-06 14:22 40.95026 6.43389 32786 ft 410 kts 270°
2026-05-06 14:22 40.95275 6.39650 33209 ft 406 kts 270°
2026-05-06 14:22 40.95522 6.35933 33500 ft 406 kts 270°
2026-05-06 14:23 40.95766 6.32213 33720 ft 407 kts 270°
2026-05-06 14:23 40.96011 6.28479 33973 ft 407 kts 270°
2026-05-06 14:23 40.96250 6.24803 34188 ft 407 kts 270°
2026-05-06 14:23 40.96492 6.21075 34391 ft 407 kts 270°
2026-05-06 14:24 40.96733 6.17354 34710 ft 404 kts 270°
2026-05-06 14:24 40.96971 6.13656 34953 ft 404 kts 270°
2026-05-06 14:24 40.97445 6.06207 34974 ft 407 kts 270°
2026-05-06 14:25 40.97914 5.98805 34950 ft 399 kts 270°
2026-05-06 14:25 40.98371 5.91510 34967 ft 397 kts 270°
2026-05-06 14:26 40.98820 5.84225 34954 ft 397 kts 270°
2026-05-06 14:26 40.99265 5.76947 34955 ft 397 kts 270°
2026-05-06 14:27 40.99707 5.69658 34979 ft 397 kts 270°
2026-05-06 14:27 41.00144 5.62360 34963 ft 398 kts 270°
2026-05-06 14:28 41.00577 5.55056 34955 ft 398 kts 270°
2026-05-06 14:28 41.01007 5.47747 34959 ft 398 kts 270°
2026-05-06 14:29 41.01432 5.40436 34955 ft 398 kts 269°
2026-05-06 14:29 41.01834 5.33124 34982 ft 398 kts 269°
2026-05-06 14:30 41.02211 5.25814 34966 ft 398 kts 269°
2026-05-06 14:30 41.02586 5.18506 34956 ft 397 kts 269°
2026-05-06 14:31 41.02957 5.11215 34957 ft 396 kts 269°
2026-05-06 14:31 41.03324 5.03939 34958 ft 395 kts 269°
2026-05-06 14:32 41.03682 4.96730 34958 ft 395 kts 269°
2026-05-06 14:32 41.04041 4.89435 34966 ft 394 kts 269°
2026-05-06 14:33 41.04391 4.82242 34957 ft 394 kts 269°
2026-05-06 14:33 41.04843 4.75013 34956 ft 395 kts 272°
2026-05-06 14:34 41.05621 4.67804 34959 ft 395 kts 272°
2026-05-06 14:34 41.06407 4.60593 34959 ft 395 kts 272°
2026-05-06 14:35 41.07190 4.53386 34963 ft 396 kts 272°
2026-05-06 14:35 41.07965 4.46172 34960 ft 396 kts 272°
2026-05-06 14:36 41.08736 4.38953 34956 ft 396 kts 272°
2026-05-06 14:36 41.09503 4.31729 34959 ft 396 kts 272°
2026-05-06 14:37 41.10266 4.24511 34956 ft 395 kts 272°
2026-05-06 14:37 41.11024 4.17286 34977 ft 396 kts 272°
2026-05-06 14:38 41.11777 4.10056 34962 ft 396 kts 272°
2026-05-06 14:38 41.12528 4.02812 34957 ft 396 kts 272°
2026-05-06 14:39 41.13273 3.95578 34954 ft 396 kts 272°
2026-05-06 14:39 41.14015 3.88336 34957 ft 396 kts 272°
2026-05-06 14:40 41.14752 3.81090 34959 ft 396 kts 272°
2026-05-06 14:40 41.15485 3.73844 34956 ft 396 kts 272°
2026-05-06 14:41 41.16214 3.66595 34955 ft 396 kts 272°
2026-05-06 14:41 41.16939 3.59342 34951 ft 396 kts 272°
2026-05-06 14:42 41.17655 3.52147 34953 ft 396 kts 272°
2026-05-06 14:42 41.18374 3.44864 34948 ft 395 kts 272°
2026-05-06 14:43 41.19075 3.37681 34951 ft 395 kts 272°
2026-05-06 14:43 41.19774 3.30454 34948 ft 394 kts 272°
2026-05-06 14:44 41.20468 3.23237 34948 ft 394 kts 272°
2026-05-06 14:45 41.21502 3.12410 34945 ft 394 kts 272°
2026-05-06 14:45 41.22186 3.05192 34955 ft 394 kts 272°
2026-05-06 14:46 41.22866 2.97970 34947 ft 394 kts 272°
2026-05-06 14:46 41.23542 2.90745 34943 ft 394 kts 272°
2026-05-06 14:47 41.24213 2.83524 34945 ft 394 kts 272°
2026-05-06 14:47 41.24879 2.76305 34946 ft 394 kts 272°
2026-05-06 14:48 41.25537 2.69125 34946 ft 394 kts 272°
2026-05-06 14:48 41.26199 2.61853 34954 ft 394 kts 272°
2026-05-06 14:49 41.26852 2.54617 34949 ft 394 kts 272°
2026-05-06 14:49 41.27497 2.47430 34946 ft 394 kts 272°
2026-05-06 14:50 41.28142 2.40194 34944 ft 394 kts 272°
2026-05-06 14:50 41.28782 2.32955 34943 ft 394 kts 272°
2026-05-06 14:51 41.29418 2.25710 34951 ft 395 kts 272°
2026-05-06 14:51 41.30050 2.18465 34942 ft 395 kts 272°
2026-05-06 14:52 41.30574 2.11202 34935 ft 392 kts 266°
2026-05-06 14:52 41.29986 2.04052 34946 ft 389 kts 258°
2026-05-06 14:53 41.29136 1.96950 34939 ft 389 kts 259°
2026-05-06 14:53 41.28304 1.89835 34959 ft 389 kts 259°
2026-05-06 14:54 41.27476 1.82707 34943 ft 391 kts 259°
2026-05-06 14:54 41.26643 1.75555 34936 ft 392 kts 259°
2026-05-06 14:55 41.25803 1.68398 34940 ft 392 kts 259°
2026-05-06 14:55 41.24959 1.61238 34936 ft 392 kts 259°
2026-05-06 14:56 41.24111 1.54073 34933 ft 392 kts 259°
2026-05-06 14:56 41.23260 1.46914 34934 ft 392 kts 259°
2026-05-06 14:57 41.22405 1.39761 34933 ft 392 kts 259°
2026-05-06 14:57 41.21546 1.32611 34931 ft 392 kts 259°
2026-05-06 14:58 41.20690 1.25522 34942 ft 391 kts 259°
2026-05-06 14:58 41.19825 1.18396 34937 ft 391 kts 259°
2026-05-06 14:59 41.18953 1.11271 34947 ft 391 kts 259°
2026-05-06 14:59 41.18074 1.04141 34947 ft 391 kts 259°
2026-05-06 15:00 41.17191 0.97009 34934 ft 392 kts 259°
2026-05-06 15:00 41.16303 0.89861 34914 ft 393 kts 259°
2026-05-06 15:01 41.15409 0.82706 34919 ft 393 kts 259°
2026-05-06 15:01 41.14510 0.75549 34931 ft 394 kts 259°
2026-05-06 15:02 41.13604 0.68371 34918 ft 395 kts 259°
2026-05-06 15:02 41.12693 0.61177 34907 ft 395 kts 259°
2026-05-06 15:03 41.11782 0.53990 34925 ft 395 kts 259°
2026-05-06 15:03 41.10864 0.46798 34923 ft 395 kts 259°
2026-05-06 15:04 41.10095 0.40835 34931 ft 395 kts 258°
2026-05-06 15:04 41.09164 0.33658 34925 ft 395 kts 259°
2026-05-06 15:05 41.08230 0.26486 34929 ft 395 kts 258°
2026-05-06 15:05 41.07289 0.19300 34929 ft 396 kts 258°
2026-05-06 15:06 41.06346 0.12124 34939 ft 396 kts 258°
2026-05-06 15:06 41.05397 0.04937 34936 ft 396 kts 258°
2026-05-06 15:07 41.04444 -0.02248 34939 ft 396 kts 258°
2026-05-06 15:07 41.03485 -0.09436 34943 ft 397 kts 258°
2026-05-06 15:08 41.02520 -0.16640 34942 ft 398 kts 258°
2026-05-06 15:08 41.01547 -0.23865 34940 ft 399 kts 258°
2026-05-06 15:09 41.00315 -0.31006 34937 ft 398 kts 250°
2026-05-06 15:09 40.98415 -0.37897 34939 ft 399 kts 250°
2026-05-06 15:10 40.96523 -0.44793 34941 ft 399 kts 250°
2026-05-06 15:10 40.94653 -0.51660 34940 ft 400 kts 250°
2026-05-06 15:11 40.92772 -0.58576 34944 ft 400 kts 250°
2026-05-06 15:11 40.90887 -0.65486 34925 ft 400 kts 250°
2026-05-06 15:12 40.89000 -0.72390 34926 ft 398 kts 250°
2026-05-06 15:12 40.87115 -0.79258 34945 ft 397 kts 250°
2026-05-06 15:13 40.85227 -0.86103 34942 ft 396 kts 250°
2026-05-06 15:13 40.83341 -0.92915 34908 ft 390 kts 250°
2026-05-06 15:13 40.82413 -0.96262 34608 ft 384 kts 250°
2026-05-06 15:14 40.81501 -0.99548 34239 ft 379 kts 250°
2026-05-06 15:14 40.80600 -1.02792 33871 ft 374 kts 250°
2026-05-06 15:14 40.79707 -1.06000 33434 ft 371 kts 250°
2026-05-06 15:14 40.78822 -1.09179 33055 ft 367 kts 250°
2026-05-06 15:15 40.77945 -1.12325 32673 ft 363 kts 250°
2026-05-06 15:15 40.77078 -1.15432 32281 ft 360 kts 250°
2026-05-06 15:15 40.76217 -1.18514 31896 ft 357 kts 250°
2026-05-06 15:15 40.75362 -1.21570 31517 ft 354 kts 250°
2026-05-06 15:16 40.74513 -1.24598 31149 ft 351 kts 250°
2026-05-06 15:16 40.73669 -1.27607 30752 ft 349 kts 250°
2026-05-06 15:16 40.72825 -1.30610 30336 ft 348 kts 250°
2026-05-06 15:16 40.71986 -1.33594 29962 ft 348 kts 250°
2026-05-06 15:17 40.71125 -1.36656 29554 ft 365 kts 250°
2026-05-06 15:17 40.70219 -1.39877 29127 ft 384 kts 250°
2026-05-06 15:17 40.69269 -1.43249 28678 ft 402 kts 250°
2026-05-06 15:17 40.68281 -1.46750 28217 ft 408 kts 250°
2026-05-06 15:18 40.67294 -1.50242 27762 ft 406 kts 250°
2026-05-06 15:18 40.66312 -1.53708 27333 ft 403 kts 250°
2026-05-06 15:18 40.65335 -1.57156 26874 ft 402 kts 250°
2026-05-06 15:18 40.64358 -1.60595 26433 ft 400 kts 250°
2026-05-06 15:19 40.63385 -1.64021 25990 ft 399 kts 250°
2026-05-06 15:19 40.62415 -1.67431 25559 ft 397 kts 250°
2026-05-06 15:19 40.61449 -1.70820 25134 ft 392 kts 250°
2026-05-06 15:19 40.60497 -1.74158 24708 ft 389 kts 250°
2026-05-06 15:20 40.59548 -1.77481 24297 ft 387 kts 250°
2026-05-06 15:20 40.58601 -1.80792 23860 ft 386 kts 250°
2026-05-06 15:20 40.57657 -1.84090 23445 ft 384 kts 250°
2026-05-06 15:20 40.56718 -1.87367 22963 ft 382 kts 250°
2026-05-06 15:21 40.55781 -1.90632 22517 ft 380 kts 250°
2026-05-06 15:21 40.54849 -1.93878 22069 ft 378 kts 250°
2026-05-06 15:21 40.53922 -1.97100 21670 ft 377 kts 250°
2026-05-06 15:21 40.52994 -2.00323 21239 ft 377 kts 250°
2026-05-06 15:22 40.52066 -2.03541 20821 ft 377 kts 250°
2026-05-06 15:22 40.51114 -2.06752 20429 ft 377 kts 247°
2026-05-06 15:22 40.49881 -2.09813 19875 ft 379 kts 240°
2026-05-06 15:22 40.48483 -2.12727 19454 ft 376 kts 240°
2026-05-06 15:23 40.47346 -2.15794 19213 ft 373 kts 251°
2026-05-06 15:23 40.46607 -2.19020 18986 ft 375 kts 255°
2026-05-06 15:23 40.45886 -2.22434 18768 ft 392 kts 255°
2026-05-06 15:23 40.45146 -2.25938 18528 ft 402 kts 255°
2026-05-06 15:24 40.44396 -2.29466 18277 ft 400 kts 255°
2026-05-06 15:24 40.43646 -2.32965 17994 ft 398 kts 255°
2026-05-06 15:24 40.42891 -2.36458 17608 ft 398 kts 255°
2026-05-06 15:24 40.42135 -2.39945 17156 ft 396 kts 254°
2026-05-06 15:25 40.41388 -2.43372 16715 ft 395 kts 254°
2026-05-06 15:25 40.40624 -2.46873 16278 ft 394 kts 254°
2026-05-06 15:25 40.39881 -2.50265 15808 ft 390 kts 254°
2026-05-06 15:25 40.39140 -2.53647 15060 ft 382 kts 254°
2026-05-06 15:26 40.38407 -2.56987 14325 ft 379 kts 254°
2026-05-06 15:26 40.37681 -2.60292 13927 ft 378 kts 254°
2026-05-06 15:26 40.36944 -2.63642 13514 ft 386 kts 253°
2026-05-06 15:26 40.36196 -2.67036 13070 ft 387 kts 253°
2026-05-06 15:27 40.35451 -2.70410 12638 ft 383 kts 253°
2026-05-06 15:27 40.34714 -2.73745 12281 ft 378 kts 253°
2026-05-06 15:27 40.33985 -2.77035 11890 ft 375 kts 253°
2026-05-06 15:27 40.33258 -2.80313 11502 ft 373 kts 253°
2026-05-06 15:28 40.32535 -2.83572 11119 ft 372 kts 253°
2026-05-06 15:28 40.31812 -2.86819 10727 ft 371 kts 253°
2026-05-06 15:28 40.31093 -2.90052 10341 ft 368 kts 253°
2026-05-06 15:28 40.30388 -2.93211 10162 ft 351 kts 253°
2026-05-06 15:29 40.29724 -2.96189 9992 ft 330 kts 253°
2026-05-06 15:29 40.29092 -2.99015 9671 ft 317 kts 253°
2026-05-06 15:29 40.28484 -3.01730 9348 ft 304 kts 253°
2026-05-06 15:29 40.27900 -3.04339 9043 ft 293 kts 253°
2026-05-06 15:30 40.27337 -3.06848 8908 ft 285 kts 253°
2026-05-06 15:30 40.26774 -3.09352 8804 ft 287 kts 253°
2026-05-06 15:30 40.26210 -3.11857 8682 ft 286 kts 253°
2026-05-06 15:30 40.25880 -3.14412 8428 ft 289 kts 274°
2026-05-06 15:31 40.26216 -3.17027 8120 ft 291 kts 281°
2026-05-06 15:31 40.26591 -3.19616 7775 ft 286 kts 280°
2026-05-06 15:31 40.26937 -3.22138 7466 ft 278 kts 280°
2026-05-06 15:32 40.27585 -3.26990 7013 ft 259 kts 279°
2026-05-06 15:32 40.27883 -3.29255 6788 ft 248 kts 279°
2026-05-06 15:32 40.28172 -3.31445 6533 ft 242 kts 281°
2026-05-06 15:32 40.28835 -3.33458 6262 ft 246 kts 308°
2026-05-06 15:33 40.29949 -3.35149 6030 ft 251 kts 311°
2026-05-06 15:33 40.31117 -3.36911 5772 ft 252 kts 313°
2026-05-06 15:33 40.32389 -3.38412 5583 ft 248 kts 322°
2026-05-06 15:33 40.33746 -3.39764 5264 ft 241 kts 323°
2026-05-06 15:34 40.35058 -3.41074 4958 ft 234 kts 322°
2026-05-06 15:34 40.36320 -3.42357 4652 ft 224 kts 322°
2026-05-06 15:34 40.37514 -3.43577 4360 ft 211 kts 322°
2026-05-06 15:34 40.38634 -3.44721 4089 ft 198 kts 321°
2026-05-06 15:35 40.39681 -3.45789 3861 ft 183 kts 321°
2026-05-06 15:35 40.40649 -3.46776 3609 ft 170 kts 321°
2026-05-06 15:35 40.41545 -3.47691 3396 ft 160 kts 321°
2026-05-06 15:35 40.42420 -3.48584 3163 ft 159 kts 322°
2026-05-06 15:36 40.43289 -3.49470 2951 ft 158 kts 323°
2026-05-06 15:36 40.44151 -3.50349 2744 ft 156 kts 322°
2026-05-06 15:36 40.45007 -3.51223 2537 ft 157 kts 321°
2026-05-06 15:36 40.45872 -3.52106 2343 ft 157 kts 321°
2026-05-06 15:37 40.46732 -3.52982 2136 ft 155 kts 321°
2026-05-06 15:37 40.47584 -3.53848 1985 ft 151 kts 321°
2026-05-06 15:37 40.48328 -3.54604 1979 ft 118 kts 322°
2026-05-06 15:37 40.48851 -3.55136 1982 ft 71 kts 322°
2026-05-06 15:38 40.49126 -3.55435 1979 ft 43 kts 310°
2026-05-06 15:38 40.49247 -3.55711 1981 ft 22 kts 292°
2026-05-06 15:38 40.49271 -3.55784 1982 ft 0 kts 292°
2026-05-06 15:40 40.49271 -3.55787 1979 ft 2 kts 292°
2026-05-06 15:40 40.49288 -3.55841 1981 ft 11 kts 292°
2026-05-06 15:41 40.49300 -3.55952 1980 ft 13 kts 269°
2026-05-06 15:41 40.49300 -3.56068 1982 ft 12 kts 270°
2026-05-06 15:41 40.49252 -3.56145 1981 ft 12 kts 182°
2026-05-06 15:41 40.49166 -3.56144 1979 ft 13 kts 179°
2026-05-06 15:42 40.49070 -3.56145 1983 ft 15 kts 180°
2026-05-06 15:42 40.48962 -3.56144 1979 ft 16 kts 180°
2026-05-06 15:42 40.48854 -3.56143 1979 ft 15 kts 180°
2026-05-06 15:42 40.48771 -3.56197 1982 ft 15 kts 260°
2026-05-06 15:43 40.48769 -3.56327 1983 ft 14 kts 269°
2026-05-06 15:43 40.48768 -3.56451 1983 ft 13 kts 269°
2026-05-06 15:43 40.48766 -3.56570 1983 ft 13 kts 269°
2026-05-06 15:43 40.48767 -3.56688 1981 ft 14 kts 270°
2026-05-06 15:44 40.48767 -3.56882 1981 ft 27 kts 269°
2026-05-06 15:44 40.48766 -3.57108 1982 ft 24 kts 269°
2026-05-06 15:44 40.48766 -3.57319 1980 ft 23 kts 270°
2026-05-06 15:44 40.48765 -3.57523 1983 ft 22 kts 270°
2026-05-06 15:45 40.48764 -3.57721 1981 ft 21 kts 270°
2026-05-06 15:45 40.48759 -3.57896 1979 ft 17 kts 251°
2026-05-06 15:45 40.48657 -3.57935 1979 ft 16 kts 181°
2026-05-06 15:45 40.48551 -3.57899 1980 ft 16 kts 152°
2026-05-06 15:46 40.48458 -3.57831 1981 ft 15 kts 150°
2026-05-06 15:46 40.48374 -3.57759 1983 ft 14 kts 143°
2026-05-06 15:46 40.48298 -3.57679 1981 ft 14 kts 141°
2026-05-06 15:46 40.48223 -3.57605 1981 ft 13 kts 143°
2026-05-06 15:47 40.48151 -3.57535 1980 ft 13 kts 143°
2026-05-06 15:47 40.48082 -3.57465 1979 ft 13 kts 140°
2026-05-06 15:47 40.48001 -3.57376 1980 ft 17 kts 140°
2026-05-06 15:47 40.47911 -3.57284 1981 ft 16 kts 144°
2026-05-06 15:48 40.47822 -3.57196 1982 ft 17 kts 142°
2026-05-06 15:48 40.47721 -3.57095 1984 ft 19 kts 142°
2026-05-06 15:48 40.47623 -3.57108 1981 ft 17 kts 234°
2026-05-06 15:48 40.47549 -3.57211 1979 ft 13 kts 196°
2026-05-06 15:49 40.47478 -3.57148 1979 ft 13 kts 127°
2026-05-06 15:49 40.47415 -3.57032 1979 ft 16 kts 132°
2026-05-06 15:49 40.47328 -3.56940 1982 ft 16 kts 152°
2026-05-06 15:49 40.47276 -3.56982 1979 ft 10 kts 261°
2026-05-06 15:50 40.47273 -3.57012 1979 ft 0 kts 262°